Other Public Products
Issued by NWS Grand Forks, ND

Home | Current Version | Previous Version | Graphics & Text | Print | Product List | Glossary On
Versions: 1 2 3 4 5 6 7 8 9 10 11 12 13 14 15 16 17 18 19 20 21 22 23 24 25 26 27 28 29 30 31 32 33 34 35 36 37 38 39 40 41 42 43 44 45 46 47 48 49 50
000
FPUS83 KFGF 300610
OPUFGF
PRAIRIE TO PINES WEATHER ROUNDUP
NATIONAL WEATHER SERVICE EASTERN NORTH DAKOTA/GRAND FORKS ND
100 AM CDT TUE SEP 30 2014

 **SATELLITE DATA USED TO AUGMENT SKY COVER AT AUTOMATED STATIONS**
 *****  WEATHER ACROSS EASTERN NORTH DAKOTA  *****

CITY           SKY/WX    TMP DP  RH WIND       PRES   REMARKS
GRAND FORKS    CLEAR     46  43  89 SE8       30.05S
6HR MIN TEMP:  46; 6HR MAX TEMP:  57;

GRAND FORKS AF CLEAR     44  43  99 SE7       30.05F
GRAND CITY NWS   N/A     45 N/A N/A SE5         N/A
BUXTON         NOT AVBL
DEVILS LAKE    PTCLDY    48  41  76 E10       29.98F
6HR MIN TEMP:  46; 6HR MAX TEMP:  52;

FARGO          CLEAR     47  43  86 SE7       30.05F
6HR MIN TEMP:  47; 6HR MAX TEMP:  60;

WAHPETON ARPT  CLEAR     46  41  81 SE13G18   30.05F
$$

 *****  WEATHER ACROSS CENTRAL AND WESTERN NORTH DAKOTA  *****

CITY           SKY/WX    TMP DP  RH WIND       PRES   REMARKS
JAMESTOWN      PTCLDY    49  46  90 SE12      29.98F
6HR MIN TEMP:  49; 6HR MAX TEMP:  53;

BISMARCK       CLOUDY    55  49  80 E9        29.92F
6HR MIN TEMP:  55; 6HR MAX TEMP:  58;

MINOT          CLOUDY    52  46  80 SE14      29.92F
6HR MIN TEMP:  51; 6HR MAX TEMP:  52;

MINOT AFB      CLOUDY    52  49  90 SE14      29.92F
6HR MIN TEMP:  50; 6HR MAX TEMP:  52;

GARRISON         N/A     53  49  86 SE10      29.90F
6HR MIN TEMP:  53; 6HR MAX TEMP:  54;

WILLISTON      CLOUDY    53  48  83 SE8       29.85F
6HR MIN TEMP:  51; 6HR MAX TEMP:  53; 6HR PCP: TRACE;

DICKINSON      CLOUDY    51  49  92 SE15      29.84F
6HR MIN TEMP:  49; 6HR MAX TEMP:  52; 6HR PCP:  0.02;

HETTINGER      CLOUDY    51  49  92 E15       29.85F
6HR MIN TEMP:  50; 6HR MAX TEMP:  52; 6HR PCP: TRACE;

$$

 *****  OTHER OBSERVATIONS NORTHEAST NORTH DAKOTA  *****

CITY           SKY/WX    TMP DP  RH WIND       PRES   REMARKS
WALHALLA       CLOUDY    45  45 100 E6        30.05F
LANGDON        FAIR      43  41  93 E8        30.03S
CAVALIER       FAIR      43  41  93 E3        30.05S
GRAFTON        FAIR      45  45 100 SE9       30.06R
CANDO          FAIR      45  45 100 E12       30.00F
FORT TOTTEN      N/A     48  46  92 E7        29.95S
ROLLA          CLOUDY    46  46 100 SE9       30.01F
RUGBY          CLOUDY    50  48  93 E15       29.97F
 ***** THE ABOVE OBSERVATIONS ARE NON NWS ARE NOT QUALITY
        CONTROLLED AND MAY MIS-REPORT RAIN FOR SNOW...
$$

 *****  OTHER OBSERVATIONS SOUTHEAST NORTH DAKOTA *****

CITY           SKY/WX    TMP DP  RH WIND       PRES   REMARKS
COOPERSTOWN    NOT AVBL
VALLEY CITY    MOCLDY    46  46 100 SE12      30.01F
OAKES            N/A     48  48 100 E14       29.99S
GWINNER          N/A     50  48  93 E12       30.01F
SHEYENNE NWR     N/A     47  45  92 SE9       29.95S
BUFFALO        NOT AVBL
WYNDMERE         N/A     48  46  93 SE9         N/A
 ***** THE ABOVE OBSERVATIONS ARE NON NWS ARE NOT QUALITY
       CONTROLLED AND MAY MIS-REPORT RAIN FOR SNOW...
$$

  *****  WEATHER ACROSS NORTHERN MINNESOTA  *****

CITY           SKY/WX    TMP DP  RH WIND       PRES   REMARKS
FLAG ISLAND    CLOUDY    46  43  87 S10       30.12R
WARROAD        CLEAR     41  37  87 SE7       30.13S
ROSEAU         CLEAR     43  37  81 E8        30.11S
HALLOCK        CLEAR     45  43  93 E7        30.06F
THF RVR FALLS  CLEAR     45  41  87 E8        30.08S
6HR MIN TEMP:  45; 6HR MAX TEMP:  54;

HALSTAD          N/A     43  41  94 SE6         N/A
FOSSTON        CLEAR     43  39  87 SE6       30.09S
BAUDETTE       CLOUDY    42  40  92 SE8       30.14R
6HR MIN TEMP:  41; 6HR MAX TEMP:  48;

WASKISH        CLOUDY    41  39  93 CALM      30.13S
CROOKSTON      CLEAR     45  43  93 SE6       30.08S
$$
  *****  WEATHER ACROSS CENTRAL AND WEST MINNESOTA  *****

CITY           SKY/WX    TMP DP  RH WIND       PRES   REMARKS
BEMIDJI        CLOUDY    47  42  85 SE10      30.10F
PARK RAPIDS    PTCLDY    44  41  89 SE7       30.10S
6HR MIN TEMP:  44; 6HR MAX TEMP:  53;

WADENA         CLOUDY    43  41  93 E8        30.09S
DETROIT LAKES  PTCLDY    46  43  87 SE13      30.09R
MOORHEAD       NOT AVBL
FERGUS FALLS   MOCLDY    48  41  76 SE9       30.07F
ELBOW LAKE     FAIR      45  42  91 SE10      30.06S
6HR MIN TEMP:  45; 6HR MAX TEMP:  52;

MORRIS MN      CLEAR     45  43  93 E12       30.06S
STAPLES        CLOUDY    43  39  87 E6        30.11S
WHEATON        CLEAR     45  43  93 E12       30.07S
$$
  *****  WEATHER ELSEWHERE ACROSS MINNESOTA  *****

CITY           SKY/WX    TMP DP  RH WIND       PRES   REMARKS
DULUTH         CLOUDY    44  39  82 E13       30.15F
6HR MIN TEMP:  44; 6HR MAX TEMP:  44;

INTRNTL FALLS  CLOUDY    42  39  89 SE7       30.15F
6HR MIN TEMP:  42; 6HR MAX TEMP:  46;

ELY            CLOUDY    41  37  87 E3        30.16F
CLOQUET        CLOUDY    43  39  87 E7        30.15F
BRAINERD       CLOUDY    42  39  89 E7        30.13S
6HR MIN TEMP:  42; 6HR MAX TEMP:  50;

HIBBING        CLOUDY    44  38  79 SE10      30.16S
6HR MIN TEMP:  44; 6HR MAX TEMP:  49;

ALEXANDRIA     CLOUDY    43  40  89 E10       30.09F
6HR MIN TEMP:  43; 6HR MAX TEMP:  52;

SAINT CLOUD    CLOUDY    45  40  82 E8        30.11S
6HR MIN TEMP:  44; 6HR MAX TEMP:  53;

MINNEAPOLIS    PTCLDY    44  40  85 NE10      30.11R
6HR MIN TEMP:  44; 6HR MAX TEMP:  55;

$$

  *****  WEATHER ACROSS SOUTH DAKOTA  *****

CITY           SKY/WX    TMP DP  RH WIND       PRES   REMARKS
SIOUX FALLS    CLOUDY    54  50  86 E12       30.00S
6HR MIN TEMP:  54; 6HR MAX TEMP:  64;

BROOKINGS      NOT AVBL
WATERTOWN      MOCLDY    49  45  86 SE10G21   30.00F
6HR MIN TEMP:  49; 6HR MAX TEMP:  56;

HURON          PTCLDY    55  49  80 SE16      29.93F
6HR MIN TEMP:  55; 6HR MAX TEMP:  66;

SISSETON         N/A     49  46  90 SE10      30.01F
ABERDEEN       MOCLDY    52  48  86 E8        29.95F
6HR MIN TEMP:  52; 6HR MAX TEMP:  60;

MITCHELL       MOCLDY    58  54  86 SE14      29.93F
PIERRE         MOCLDY    59  55  87 SE22G32   29.80F
6HR MIN TEMP:  59; 6HR MAX TEMP:  66;

MOBRIDGE       CLOUDY    57  52  83 SE13      29.85F
RAPID CITY     HVY RAIN  52  52 100 N9        29.77F FOG
6HR MIN TEMP:  51; 6HR MAX TEMP:  53; 6HR PCP:  0.62;

$$

  *****  SOME WEATHER IN NEARBY STATES *****

CITY           SKY/WX    TMP DP  RH WIND       PRES   REMARKS
GLASGOW MT     CLOUDY    49  47  93 E15       29.74F
6HR MIN TEMP:  48; 6HR MAX TEMP:  50;

GREAT FALLS MT CLOUDY    55  45  68 SW13      29.68S
6HR MIN TEMP:  54; 6HR MAX TEMP:  63;

CHEYENNE WY    LGT RAIN  46  42  86 NW13      29.86F
6HR MIN TEMP:  44; 6HR MAX TEMP:  51; 6HR PCP:  0.45;

SCOTTSBLUFF NE HVY RAIN  52  51  97 W25G33    29.64F FOG
6HR MIN TEMP:  52; 6HR MAX TEMP:  64; 6HR PCP:  1.30;

OMAHA NE       PTCLDY    67  60  78 E6        29.96F
6HR MIN TEMP:  64; 6HR MAX TEMP:  78;

DES MOINES IA  CLEAR     63  58  83 NE6       30.00R
6HR MIN TEMP:  63; 6HR MAX TEMP:  78;

DAVENPORT IA   NOT AVBL
CHICAGO IL     CLOUDY    54  49  83 NE13      30.02R
6HR MIN TEMP:  54; 6HR MAX TEMP:  60; 6HR PCP:  0.01;

EAU CLAIRE WI  CLOUDY    42  36  79 NE14      30.12S
6HR MIN TEMP:  42; 6HR MAX TEMP:  53;

LA CROSSE WI   CLEAR     47  42  83 NE6       30.09R
6HR MIN TEMP:  47; 6HR MAX TEMP:  59;

$$

  *****  SOME NATIONAL WEATHER *****

CITY           SKY/WX    TMP DP  RH WIND       PRES   REMARKS
LA GUARDIA NY  CLOUDY    71  58  63 SW3       29.92S



USA.gov is the U.S. government's official web portal to all federal, state and local government web resources and services.